When you browse on this site, cookies collect data to enhance your experience and personalize the content and advertising you see.
Visit our Privacy Policy to learn more. By continuing to use the site, you agree to this use of cookies and data.
  • In Romania
  • List of Countries
  • For 7 days
  • Water Temperature
  • Satellite Maps
  • Weather Map
  • Weather Widgets
  • user-avatar
    Login

    Hourly Weather Kopyryane

    Today, 21 January, Monday

    Time Temperature Precipitation Wind Pressure Humidity
    00:00 -12°C° 0 mm 3 mps 734 mmHg 92%
    01:00 -12°C° 0 mm 3 mps 734 mmHg 92%
    02:00 -12°C° 0 mm 2 mps 734 mmHg 93%
    03:00 -12°C° 0 mm 2 mps 734 mmHg 93%
    04:00 -13°C° 0 mm 2 mps 734 mmHg 93%
    05:00 -13°C° 0 mm 2 mps 734 mmHg 94%
    06:00 -13°C° 0 mm 2 mps 734 mmHg 93%
    07:00 -14°C° 0 mm 2 mps 734 mmHg 93%
    08:00 -14°C° 0 mm 2 mps 734 mmHg 93%
    09:00 -15°C° 0 mm 3 mps 735 mmHg 92%
    10:00 -14°C° 0 mm 3 mps 735 mmHg 90%
    11:00 -13°C° 0 mm 3 mps 735 mmHg 89%
    12:00 -14°C° 0 mm 3 mps 735 mmHg 88%
    13:00 -14°C° 0 mm 3 mps 735 mmHg 86%
    14:00 -14°C° 0 mm 3 mps 736 mmHg 85%
    15:00 -15°C° 0 mm 3 mps 736 mmHg 88%
    16:00 -15°C° 0 mm 3 mps 736 mmHg 90%
    17:00 -15°C° 0 mm 2 mps 737 mmHg 92%
    18:00 -16°C° 0 mm 2 mps 737 mmHg 93%
    19:00 -17°C° 0 mm 2 mps 737 mmHg 94%
    20:00 -19°C° 0 mm 3 mps 737 mmHg 95%
    21:00 -21°C° 0 mm 3 mps 738 mmHg 95%
    22:00 -21°C° 0 mm 3 mps 738 mmHg 95%
    23:00 -22°C° 0 mm 3 mps 738 mmHg 95%

    Tomorrow, 22 January, Tuesday

    Time Temperature Precipitation Wind Pressure Humidity
    00:00 -22°C° 0 mm 3 mps 738 mmHg 94%
    01:00 -22°C° 0 mm 3 mps 739 mmHg 94%
    02:00 -22°C° 0 mm 3 mps 739 mmHg 93%
    03:00 -22°C° 0 mm 3 mps 739 mmHg 94%
    04:00 -22°C° 0 mm 3 mps 739 mmHg 94%
    05:00 -22°C° 0 mm 3 mps 740 mmHg 95%
    06:00 -23°C° 0 mm 3 mps 740 mmHg 95%
    07:00 -23°C° 0 mm 3 mps 740 mmHg 96%
    08:00 -21°C° 0 mm 2 mps 741 mmHg 96%
    09:00 -20°C° 0 mm 2 mps 741 mmHg 96%
    10:00 -19°C° 0 mm 2 mps 741 mmHg 95%
    11:00 -18°C° 0 mm 2 mps 742 mmHg 94%
    12:00 -17°C° 0 mm 2 mps 742 mmHg 94%
    13:00 -17°C° 0 mm 2 mps 742 mmHg 94%
    14:00 -16°C° 0 mm 2 mps 742 mmHg 94%
    15:00 -17°C° 0 mm 2 mps 742 mmHg 94%
    16:00 -19°C° 0 mm 2 mps 742 mmHg 95%
    17:00 -20°C° 0 mm 2 mps 742 mmHg 96%
    18:00 -20°C° 0 mm 2 mps 742 mmHg 96%
    19:00 -21°C° 0 mm 2 mps 741 mmHg 95%
    20:00 -21°C° 0 mm 2 mps 741 mmHg 95%
    21:00 -21°C° 0 mm 2 mps 741 mmHg 95%
    22:00 -21°C° 0 mm 2 mps 741 mmHg 95%
    23:00 -23°C° 0 mm 2 mps 741 mmHg 95%

    Day after tomorrow, 23 January, Wednesday

    Time Temperature Precipitation Wind Pressure Humidity
    00:00 -23°C° 0 mm 2 mps 741 mmHg 96%
    01:00 -23°C° 0 mm 2 mps 741 mmHg 97%
    02:00 -23°C° 0 mm 2 mps 741 mmHg 97%
    03:00 -23°C° 0 mm 2 mps 741 mmHg 97%
    04:00 -23°C° 0 mm 2 mps 741 mmHg 98%
    05:00 -23°C° 0 mm 2 mps 740 mmHg 98%
    06:00 -21°C° 0 mm 2 mps 740 mmHg 98%
    07:00 -20°C° 0 mm 2 mps 740 mmHg 98%
    08:00 -19°C° 0 mm 2 mps 741 mmHg 98%
    09:00 -17°C° 0 mm 2 mps 741 mmHg 96%
    10:00 -16°C° 0 mm 3 mps 741 mmHg 95%
    11:00 -13°C° 0 mm 3 mps 741 mmHg 93%
    12:00 -12°C° 0 mm 3 mps 741 mmHg 92%
    13:00 -10°C° 0 mm 3 mps 740 mmHg 90%
    14:00 -9°C° 0 mm 3 mps 740 mmHg 89%
    15:00 -9°C° 0 mm 3 mps 740 mmHg 91%
    16:00 -10°C° 0 mm 3 mps 740 mmHg 92%
    17:00 -10°C° 0 mm 3 mps 740 mmHg 93%
    18:00 -10°C° 0 mm 3 mps 740 mmHg 94%
    19:00 -12°C° 0 mm 3 mps 740 mmHg 94%
    20:00 -12°C° 0 mm 3 mps 740 mmHg 94%
    21:00 -14°C° 0 mm 3 mps 740 mmHg 93%
    22:00 -15°C° 0 mm 3 mps 740 mmHg 92%
    23:00 -17°C° 0 mm 3 mps 740 mmHg 91%

    24 January, Thursday

    Time Temperature Precipitation Wind Pressure Humidity
    00:00 -17°C° 0 mm 3 mps 740 mmHg 90%
    01:00 -17°C° 0 mm 3 mps 740 mmHg 89%
    02:00 -17°C° 0 mm 2 mps 740 mmHg 89%
    03:00 -17°C° 0 mm 2 mps 739 mmHg 88%
    04:00 -18°C° 0 mm 2 mps 739 mmHg 88%
    05:00 -18°C° 0 mm 2 mps 739 mmHg 88%
    06:00 -18°C° 0 mm 2 mps 739 mmHg 88%
    07:00 -17°C° 0 mm 2 mps 739 mmHg 87%
    08:00 -17°C° 0 mm 2 mps 739 mmHg 87%
    09:00 -16°C° 0 mm 2 mps 739 mmHg 89%
    10:00 -14°C° 0 mm 2 mps 740 mmHg 92%
    11:00 -13°C° 0 mm 2 mps 740 mmHg 94%
    12:00 -12°C° 0 mm 2 mps 740 mmHg 93%
    13:00 -10°C° 0 mm 2 mps 741 mmHg 93%
    14:00 -10°C° 0 mm 2 mps 741 mmHg 93%
    15:00 -10°C° 0 mm 2 mps 741 mmHg 93%
    16:00 -12°C° 0 mm 2 mps 742 mmHg 93%
    17:00 -13°C° 0 mm 2 mps 742 mmHg 93%
    18:00 -15°C° 0 mm 2 mps 743 mmHg 94%
    19:00 -17°C° 0 mm 2 mps 743 mmHg 95%
    20:00 -19°C° 0 mm 2 mps 744 mmHg 96%
    21:00 -18°C° 0 mm 1 mps 744 mmHg 96%
    22:00 -19°C° 0 mm 1 mps 745 mmHg 96%
    23:00 -20°C° 0 mm 1 mps 745 mmHg 97%

    25 January, Friday

    Time Temperature Precipitation Wind Pressure Humidity
    00:00 -21°C° 0 mm 1 mps 746 mmHg 96%
    01:00 -21°C° 0 mm 1 mps 746 mmHg 95%
    02:00 -21°C° 0 mm 0 mps 747 mmHg 95%
    03:00 -21°C° 0 mm 0 mps 747 mmHg 94%
    04:00 -22°C° 0 mm 0 mps 747 mmHg 93%
    05:00 -22°C° 0 mm 0 mps 747 mmHg 92%
    06:00 -22°C° 0 mm 0 mps 747 mmHg 91%
    07:00 -21°C° 0 mm 0 mps 747 mmHg 91%
    08:00 -21°C° 0 mm 1 mps 747 mmHg 90%
    09:00 -20°C° 0 mm 1 mps 748 mmHg 89%
    10:00 -18°C° 0 mm 1 mps 748 mmHg 88%
    11:00 -16°C° 0 mm 1 mps 748 mmHg 88%
    12:00 -16°C° 0 mm 1 mps 748 mmHg 88%
    13:00 -15°C° 0 mm 1 mps 748 mmHg 89%
    14:00 -14°C° 0 mm 1 mps 747 mmHg 89%
    15:00 -16°C° 0 mm 1 mps 747 mmHg 89%
    16:00 -17°C° 0 mm 1 mps 747 mmHg 89%
    17:00 -18°C° 0 mm 1 mps 747 mmHg 89%
    18:00 -18°C° 0 mm 1 mps 747 mmHg 89%
    19:00 -18°C° 0 mm 1 mps 747 mmHg 88%
    20:00 -18°C° 0 mm 1 mps 747 mmHg 88%
    21:00 -18°C° 0 mm 1 mps 747 mmHg 88%
    22:00 -19°C° 0 mm 1 mps 746 mmHg 88%
    23:00 -19°C° 0 mm 1 mps 746 mmHg 88%

    26 January, Saturday

    Time Temperature Precipitation Wind Pressure Humidity
    00:00 -19°C° 0 mm 1 mps 746 mmHg 88%
    01:00 -19°C° 0 mm 1 mps 745 mmHg 88%
    02:00 -19°C° 0 mm 1 mps 745 mmHg 88%
    03:00 -19°C° 0 mm 1 mps 745 mmHg 88%
    04:00 -19°C° 0 mm 1 mps 744 mmHg 89%
    05:00 -19°C° 0 mm 1 mps 744 mmHg 89%
    06:00 -20°C° 0 mm 1 mps 744 mmHg 89%
    07:00 -21°C° 0 mm 1 mps 744 mmHg 90%
    08:00 -21°C° 0 mm 1 mps 743 mmHg 90%
    09:00 -23°C° 0 mm 2 mps 743 mmHg 89%
    10:00 -20°C° 0 mm 2 mps 743 mmHg 88%
    11:00 -19°C° 0 mm 2 mps 743 mmHg 87%
    12:00 -18°C° 0 mm 2 mps 742 mmHg 88%
    13:00 -18°C° 0 mm 2 mps 742 mmHg 89%
    14:00 -17°C° 0 mm 2 mps 741 mmHg 89%
    15:00 -19°C° 0 mm 2 mps 741 mmHg 92%
    16:00 -20°C° 0 mm 2 mps 741 mmHg 94%
    17:00 -23°C° 0 mm 2 mps 740 mmHg 96%
    18:00 -23°C° 0 mm 2 mps 740 mmHg 96%
    19:00 -23°C° 0 mm 2 mps 740 mmHg 95%
    20:00 -24°C° 0 mm 2 mps 740 mmHg 95%
    21:00 -24°C° 0 mm 2 mps 740 mmHg 95%
    22:00 -24°C° 0 mm 2 mps 739 mmHg 94%
    23:00 -24°C° 0 mm 2 mps 739 mmHg 93%
    Show more